When you browse on this site, cookies collect data to enhance your experience and personalize the content and advertising you see.
Visit our Privacy Policy to learn more. By continuing to use the site, you agree to this use of cookies and data.
  • In Austria
  • List of Countries
  • For 7 days
  • Water Temperature
  • Weather Map
  • News
  • Weather Widgets
  • user-avatar
    Login

    Hourly Weather Plastok

    Today, 29 May, Friday

    Time Temperature Precipitation Wind Pressure Humidity
    00:00 +12°C° 0.2 mm 1 mps 749 mmHg 92%
    01:00 +12°C° 0.2 mm 2 mps 749 mmHg 92%
    02:00 +12°C° 0.2 mm 2 mps 748 mmHg 93%
    03:00 +12°C° 1.2 mm 2 mps 748 mmHg 94%
    04:00 +10°C° 1.2 mm 3 mps 747 mmHg 95%
    05:00 +10°C° 1.2 mm 3 mps 747 mmHg 96%
    06:00 +11°C° 2.4 mm 4 mps 747 mmHg 96%
    07:00 +10°C° 2.4 mm 6 mps 747 mmHg 95%
    08:00 +10°C° 2.4 mm 7 mps 746 mmHg 94%
    09:00 +10°C° 1.4 mm 7 mps 746 mmHg 93%
    10:00 +10°C° 1.4 mm 7 mps 746 mmHg 92%
    11:00 +10°C° 1.4 mm 7 mps 746 mmHg 91%
    12:00 +11°C° 0.1 mm 7 mps 746 mmHg 90%
    13:00 +11°C° 0.1 mm 7 mps 746 mmHg 88%
    14:00 +12°C° 0.1 mm 7 mps 746 mmHg 87%
    15:00 +13°C° 0.3 mm 6 mps 746 mmHg 89%
    16:00 +11°C° 0.3 mm 6 mps 745 mmHg 90%
    17:00 +11°C° 0.3 mm 6 mps 745 mmHg 92%
    18:00 +11°C° 1.3 mm 6 mps 745 mmHg 93%
    19:00 +11°C° 1.3 mm 6 mps 745 mmHg 94%
    20:00 +12°C° 1.3 mm 5 mps 744 mmHg 95%
    21:00 +12°C° 0.9 mm 5 mps 744 mmHg 96%
    22:00 +12°C° 0.9 mm 4 mps 744 mmHg 96%
    23:00 +12°C° 0.9 mm 4 mps 744 mmHg 97%

    Tomorrow, 30 May, Saturday

    Time Temperature Precipitation Wind Pressure Humidity
    00:00 +12°C° 0.1 mm 3 mps 744 mmHg 97%
    01:00 +12°C° 0.1 mm 3 mps 744 mmHg 97%
    02:00 +12°C° 0.1 mm 3 mps 744 mmHg 98%
    03:00 +12°C° 0 mm 3 mps 743 mmHg 98%
    04:00 +12°C° 0 mm 3 mps 743 mmHg 98%
    05:00 +13°C° 0 mm 2 mps 743 mmHg 98%
    06:00 +14°C° 0 mm 2 mps 743 mmHg 96%
    07:00 +14°C° 0 mm 3 mps 743 mmHg 94%
    08:00 +16°C° 0 mm 3 mps 743 mmHg 92%
    09:00 +16°C° 1.9 mm 3 mps 743 mmHg 92%
    10:00 +16°C° 1.9 mm 3 mps 742 mmHg 93%
    11:00 +15°C° 1.9 mm 4 mps 742 mmHg 94%
    12:00 +15°C° 5.7 mm 4 mps 741 mmHg 95%
    13:00 +15°C° 5.7 mm 4 mps 741 mmHg 97%
    14:00 +15°C° 5.7 mm 4 mps 740 mmHg 98%
    15:00 +15°C° 4.8 mm 4 mps 740 mmHg 97%
    16:00 +15°C° 4.8 mm 5 mps 739 mmHg 97%
    17:00 +15°C° 4.8 mm 6 mps 738 mmHg 97%
    18:00 +15°C° 1.9 mm 6 mps 738 mmHg 96%
    19:00 +16°C° 1.9 mm 7 mps 737 mmHg 95%
    20:00 +16°C° 1.9 mm 8 mps 737 mmHg 95%
    21:00 +16°C° 0.6 mm 8 mps 737 mmHg 94%
    22:00 +15°C° 0.6 mm 8 mps 737 mmHg 93%
    23:00 +15°C° 0.6 mm 8 mps 737 mmHg 93%

    Day after tomorrow, 31 May, Sunday

    Time Temperature Precipitation Wind Pressure Humidity
    00:00 +14°C° 0 mm 7 mps 737 mmHg 93%
    01:00 +14°C° 0 mm 6 mps 738 mmHg 94%
    02:00 +13°C° 0 mm 6 mps 738 mmHg 95%
    03:00 +13°C° 0 mm 5 mps 739 mmHg 94%
    04:00 +13°C° 0 mm 5 mps 740 mmHg 94%
    05:00 +12°C° 0 mm 5 mps 740 mmHg 93%
    06:00 +13°C° 0 mm 5 mps 741 mmHg 91%
    07:00 +13°C° 0 mm 5 mps 742 mmHg 89%
    08:00 +13°C° 0 mm 5 mps 743 mmHg 87%
    09:00 +14°C° 0 mm 4 mps 743 mmHg 84%
    10:00 +15°C° 0 mm 4 mps 744 mmHg 81%
    11:00 +17°C° 0 mm 3 mps 745 mmHg 78%
    12:00 +18°C° 0.2 mm 3 mps 745 mmHg 76%
    13:00 +19°C° 0.2 mm 3 mps 745 mmHg 73%
    14:00 +20°C° 0.2 mm 2 mps 746 mmHg 71%
    15:00 +18°C° 1.9 mm 3 mps 746 mmHg 79%
    16:00 +15°C° 1.9 mm 4 mps 746 mmHg 87%
    17:00 +13°C° 1.9 mm 5 mps 747 mmHg 94%
    18:00 +13°C° 0.8 mm 5 mps 747 mmHg 95%
    19:00 +12°C° 0.8 mm 4 mps 748 mmHg 96%
    20:00 +12°C° 0.8 mm 4 mps 748 mmHg 97%
    21:00 +12°C° 0.1 mm 4 mps 748 mmHg 96%
    22:00 +12°C° 0.1 mm 4 mps 749 mmHg 95%
    23:00 +12°C° 0.1 mm 4 mps 749 mmHg 94%

    1 June, Monday

    Time Temperature Precipitation Wind Pressure Humidity
    00:00 +12°C° 0 mm 4 mps 750 mmHg 94%
    01:00 +11°C° 0 mm 4 mps 750 mmHg 94%
    02:00 +11°C° 0 mm 4 mps 750 mmHg 94%
    03:00 +11°C° 0 mm 4 mps 750 mmHg 93%
    04:00 +11°C° 0 mm 4 mps 751 mmHg 93%
    05:00 +10°C° 0 mm 5 mps 751 mmHg 92%
    06:00 +12°C° 0 mm 5 mps 751 mmHg 88%
    07:00 +13°C° 0 mm 5 mps 752 mmHg 84%
    08:00 +14°C° 0 mm 5 mps 752 mmHg 80%
    09:00 +15°C° 0 mm 5 mps 752 mmHg 73%
    10:00 +17°C° 0 mm 6 mps 753 mmHg 66%
    11:00 +19°C° 0 mm 6 mps 753 mmHg 59%
    12:00 +19°C° 0 mm 6 mps 753 mmHg 59%
    13:00 +20°C° 0 mm 5 mps 753 mmHg 58%
    14:00 +20°C° 0 mm 5 mps 753 mmHg 58%
    15:00 +19°C° 0 mm 5 mps 753 mmHg 59%
    16:00 +19°C° 0 mm 5 mps 753 mmHg 60%
    17:00 +17°C° 0 mm 5 mps 753 mmHg 61%
    18:00 +17°C° 0 mm 4 mps 753 mmHg 68%
    19:00 +14°C° 0 mm 3 mps 753 mmHg 74%
    20:00 +13°C° 0 mm 3 mps 753 mmHg 80%
    21:00 +13°C° 0 mm 2 mps 753 mmHg 84%
    22:00 +12°C° 0 mm 2 mps 753 mmHg 87%
    23:00 +10°C° 0 mm 2 mps 754 mmHg 91%

    2 June, Tuesday

    Time Temperature Precipitation Wind Pressure Humidity
    00:00 +9°C° 0 mm 2 mps 754 mmHg 91%
    01:00 +10°C° 0 mm 1 mps 754 mmHg 92%
    02:00 +10°C° 0 mm 1 mps 754 mmHg 92%
    03:00 +10°C° 0 mm 1 mps 753 mmHg 92%
    04:00 +10°C° 0 mm 1 mps 753 mmHg 92%
    05:00 +10°C° 0 mm 1 mps 753 mmHg 92%
    06:00 +12°C° 0 mm 2 mps 753 mmHg 85%
    07:00 +14°C° 0 mm 2 mps 753 mmHg 79%
    08:00 +17°C° 0 mm 2 mps 753 mmHg 72%
    09:00 +18°C° 0 mm 2 mps 753 mmHg 68%
    10:00 +19°C° 0 mm 3 mps 753 mmHg 64%
    11:00 +20°C° 0 mm 3 mps 753 mmHg 60%
    12:00 +21°C° 0.1 mm 3 mps 752 mmHg 59%
    13:00 +21°C° 0.1 mm 3 mps 752 mmHg 58%
    14:00 +22°C° 0.1 mm 3 mps 752 mmHg 56%
    15:00 +21°C° 0.6 mm 3 mps 751 mmHg 63%
    16:00 +21°C° 0.6 mm 3 mps 751 mmHg 70%
    17:00 +20°C° 0.6 mm 3 mps 751 mmHg 77%
    18:00 +19°C° 0.3 mm 2 mps 751 mmHg 82%
    19:00 +17°C° 0.3 mm 2 mps 751 mmHg 86%
    20:00 +16°C° 0.3 mm 2 mps 750 mmHg 90%
    21:00 +15°C° 0.1 mm 2 mps 751 mmHg 92%
    22:00 +14°C° 0.1 mm 2 mps 751 mmHg 93%
    23:00 +13°C° 0.1 mm 2 mps 751 mmHg 95%

    3 June, Wednesday

    Time Temperature Precipitation Wind Pressure Humidity
    00:00 +13°C° 0 mm 1 mps 751 mmHg 95%
    01:00 +12°C° 0 mm 1 mps 751 mmHg 94%
    02:00 +11°C° 0 mm 1 mps 751 mmHg 94%
    03:00 +11°C° 0 mm 1 mps 751 mmHg 94%
    04:00 +11°C° 0 mm 1 mps 751 mmHg 94%
    05:00 +11°C° 0 mm 1 mps 751 mmHg 94%
    06:00 +13°C° 0 mm 1 mps 751 mmHg 89%
    07:00 +14°C° 0 mm 1 mps 751 mmHg 84%
    08:00 +16°C° 0 mm 1 mps 751 mmHg 79%
    09:00 +17°C° 0 mm 2 mps 751 mmHg 71%
    10:00 +19°C° 0 mm 2 mps 751 mmHg 63%
    11:00 +20°C° 0 mm 2 mps 751 mmHg 55%
    12:00 +20°C° 0 mm 2 mps 751 mmHg 53%
    13:00 +21°C° 0 mm 2 mps 751 mmHg 51%
    14:00 +21°C° 0 mm 2 mps 751 mmHg 49%
    15:00 +21°C° 0 mm 2 mps 751 mmHg 51%
    16:00 +21°C° 0 mm 2 mps 750 mmHg 52%
    17:00 +21°C° 0 mm 2 mps 750 mmHg 54%
    18:00 +19°C° 0 mm 2 mps 750 mmHg 61%
    19:00 +18°C° 0 mm 1 mps 750 mmHg 68%
    20:00 +15°C° 0 mm 1 mps 750 mmHg 75%
    21:00 +14°C° 0 mm 1 mps 751 mmHg 77%
    22:00 +13°C° 0 mm 1 mps 751 mmHg 79%
    23:00 +12°C° 0 mm 1 mps 751 mmHg 80%
    Show more